Regional Weather Roundup
Issued by NWS

Home | Current Version | Previous Version | Text Only | Print | Product List | Glossary On
Versions: 1 2 3 4 5 6 7 8 9 10 11 12 13 14 15 16 17 18 19 20 21 22 23 24 25 26 27 28 29 30 31 32 33 34 35 36 37 38 39 40 41 42 43 44 45 46 47 48 49 50
692
ASUS43 KLOT 251503
RWRIL

ILLINOIS REGIONAL WEATHER ROUNDUP
NATIONAL WEATHER SERVICE CHICAGO/ROMEOVILLE IL
1000 AM CDT THU AUG 25 2016

NOTE: "FAIR" INDICATES FEW OR NO CLOUDS BELOW 12,000 FEET WITH NO
SIGNIFICANT WEATHER AND/OR OBSTRUCTIONS TO VISIBILITY.

* THESE STATIONS ARE NOT UNDER NWS QUALITY CONTROL. THEY ALSO MAY NOT
  REPORT WEATHER SUCH AS PRECIPITATION OR FOG.

ILZ001-002-007-009-015-016-024-251600-
NORTHWEST ILLINOIS

CITY           SKY/WX    TMP DP  RH WIND       PRES   REMARKS
MOLINE         MOSUNNY   75  64  68 NE3       30.04R
STERLING*      CLOUDY    75  68  78 NE5       30.05R
SAVANNA*       MOSUNNY   74  63  67 NE3       30.04R
$$

ILZ003-004-008-010-011-017-018-251600-
NORTH CENTRAL ILLINOIS

CITY           SKY/WX    TMP DP  RH WIND       PRES   REMARKS
ROCKFORD       MOSUNNY   75  63  66 N9        30.03S
FREEPORT*      SUNNY     72  63  72 N5        30.05S
ROCHELLE*      MOSUNNY   74  68  82 N3        30.04R
$$

ILZ005-006-012>014-019>023-251600-
NORTHEAST ILLINOIS

CITY           SKY/WX    TMP DP  RH WIND       PRES   REMARKS
CHICAGO-OHARE  CLOUDY    74  69  85 NW9       30.00R
CHICAGO-MIDWAY CLOUDY    75  70  84 W9        30.00S
AURORA         CLOUDY    75  70  84 NW7       30.02S
LANSING*       CLOUDY    74  69  85 W10       30.01R
JOLIET*        CLOUDY    75  72  88 W6        30.02R
WAUKEGAN       CLOUDY    74  68  81 NW6       30.01R
DUPAGE AIRPORT CLOUDY    75  69  81 N5        30.01R
KANKAKEE*      CLOUDY    77  70  81 W12       30.04R
WHEELING       CLOUDY    75  68  78 N6        30.02R
MORRIS*        CLOUDY    74  70  87 W8        30.02R
ROMEOVILLE*    CLOUDY    73  69  85 W6        30.02R
NORTHERLY ISL    N/A     73  68  84 W9          N/A
$$

LMZ740>746-251600-
SOUTHERN LAKE MICHIGAN

STATION/POSITION SKY/WX   TEMP    WIND        PRES    VSBY  WAVE
                          AIR SEA DIR/SP/G                  HT/PER
                          (F)     (DEG/KT/KT) (MB)    (MI)  (FT/S)
SOUTHERN BUOY              73 74  350/  8/ 10 1014.4          1/ 4
WILMETTE HARBOR            67 67  310/  4/  6   N/A           0
HARRISON CRIB              74     250/ 10/ 11   N/A
BURNHAM HARBOR             73     280/  6/ 10   N/A
CALUMET HARBOR             73     230/  6/ 12 1015.3R
BURNS HARBOR               74     240/ 10/ 17 1016.3R
MICHIGAN CITY              73     190/ 12/ 14   N/A
MICHIGAN CITY 6N           73 74  220/ 10/ 12   N/A           1/ 2
ST. JOSEPH                 73 74  230/ 14/ 19 1014.8F         3/ 4
$$

ILZ025>027-034>036-040-047-049-050-058-095>099-251600-
WEST-CENTRAL ILLINOIS

CITY           SKY/WX    TMP DP  RH WIND       PRES   REMARKS
QUINCY         CLOUDY    74  72  93 SW5       30.08R
GALESBURG*     PTSUNNY   74  69  84 N3        30.06R
MACOMB*        CLOUDY    74  70  87 CALM      30.08R
JACKSONVILLE*  MOSUNNY   77  71  80 SW7       30.08R
PITTSFIELD*    PTSUNNY   77  71  81 W7        30.09R
$$

ILZ028>032-037-038-041>044-048-051>054-059>061-251600-
CENTRAL ILLINOIS

CITY           SKY/WX    TMP DP  RH WIND       PRES   REMARKS
PONTIAC        CLOUDY    75  73  92 W8        30.05R
BLOOMINGTON    CLOUDY    73  70  90 W7        30.08R
DECATUR        SUNNY     79  68  69 S5        30.07S HX  81
PEORIA         PTSUNNY   76  72  87 W3        30.05R
LACON*         CLOUDY    74  70  87 CALM      30.04R
LINCOLN*       MOSUNNY   78  71  80 SW3       30.06R HX  80
SPRINGFIELD    SUNNY     79  70  74 VRB7      30.07R HX  82
TAYLORVILLE    SUNNY     79  70  74 SW3       30.07S HX  82
$$

ILZ033-039-045-046-055>057-062-063-251600-
EAST-CENTRAL ILLINOIS

CITY           SKY/WX    TMP DP  RH WIND       PRES   REMARKS
CHAMPAIGN      SUNNY     78  70  76 W8        30.08R HX  80
RANTOUL*       SUNNY     79  73  81 SW9       30.07R HX  82
MATTOON        SUNNY     80  70  71 SW9       30.07R HX  83
PARIS*         SUNNY     81  73  75 CALM      30.08R HX  86
$$

ILZ079-100>102-251600-
SOUTHWEST ILLINOIS

CITY           SKY/WX    TMP DP  RH WIND       PRES   REMARKS
ALTON          MOSUNNY   82  72  69 VRB5      30.07R HX  87
BELLEVILLE     SUNNY     84  74  71 S12       30.05S HX  91
CAHOKIA*       SUNNY     85  72  65 SW8       30.06R HX  91
SPARTA*        SUNNY     81  73  78 S8        30.10R HX  86
$$

ILZ064>066-069>071-074>076-080>082-084>086-088>090-092>094-251600-
SOUTH-CENTRAL ILLINOIS

CITY           SKY/WX    TMP DP  RH WIND       PRES   REMARKS
CARBONDALE     SUNNY     83  73  72 SW8       30.09S HX  89
EFFINGHAM*     SUNNY     83  75  78 CALM      30.09S HX  90
MARION         SUNNY     84  75  74 SW9       30.10S HX  92
MT. VERNON     SUNNY     82  73  74 S9        30.09S HX  88
CENTRALIA*     SUNNY     84  78  82 S8        30.07R HX  94
SALEM*         SUNNY     83  76  77 S9        30.08R HX  92
$$

ILZ067-068-072-073-078-083-087-091-251600-
SOUTHEAST ILLINOIS

CITY           SKY/WX    TMP DP  RH WIND       PRES   REMARKS
LAWRENCEVILLE  SUNNY     84  76  76 SW8       30.08S HX  93
FLORA*         SUNNY     84  77  78 S9        30.08R HX  93
FAIRFIELD*     MOSUNNY   83  77  83 S6        30.07F HX  91
HARRISBURG*    SUNNY     84  76  78 SW8       30.10S HX  92
ROBINSON*      SUNNY     82  76  81 SW6       30.08S HX  90
CARMI*         SUNNY     84  77  78 SW6       30.08F HX  93
$$

ABBREVIATIONS USED IN REMARKS
   TC - TEMPERATURE IN CELSIUS
  WCI - WIND CHILL INDEX
   HX - HEAT INDEX
  VSB - VISIBILITY
$$





USA.gov is the U.S. government's official web portal to all federal, state and local government web resources and services.